SCP
0 0 0 0 0 0 0 0 0 0 0 0 0 0 0 0 0 0 0 0 0 0 0 0 0 0 1 1 1 1 1 1 1 1 1 1 1 0 0 0 0 0 0 0
0 0 0 0 0 0 0 0 0 0 0 0 0 0 0 0 0 0 0 0 0 0 0 0 0 0 0 1 1 1 1 1 1 1 1 1 1 1 1 1 0 0 0 0
0 0 0 0 0 0 0 0 0 0 0 0 0 0 0 0 0 0 0 0 0 0 0 0 0 0 0 0 0 1 1 1 1 1 1 1 1 1 1 1 1 0 0 0
0 0 0 0 0 0 0 0 0 0 0 0 0 0 0 0 0 0 0 0 0 0 0 0 0 0 0 0 0 0 0 1 1 1 1 1 1 1 1 1 1 0 0 0
0 0 0 0 0 0 0 0 0 0 0 0 0 0 0 0 0 0 0 0 0 0 0 0 0 0 0 0 0 0 0 0 0 0 1 1 0 0 0 0 0 0 0 0
0 0 0 0 0 0 0 0 0 0 0 0 0 0 0 0 0 0 0 0 0 0 0 0 0 0 0 0 0 0 0 0 0 0 0 0 0 0 0 0 0 0 0 0
0 0 0 0 0 0 0 0 0 0 0 0 0 0 0 0 0 0 0 0 0 0 0 0 0 0 0 0 0 0 0 0 0 0 0 0 0 0 0 0 0 0 0 0
0 0 0 0 0 0 0 0 0 0 0 0 0 0 0 0 0 0 0 0 0 0 0 0 0 0 0 0 0 0 0 0 0 0 0 0 0 0 0 0 0 0 0 0
0 0 0 0 0 0 0 0 0 0 0 0 0 0 0 0 0 0 0 0 0 0 0 0 0 0 0 0 0 0 0 0 0 0 0 0 0 0 0 0 0 0 0 0
0 0 0 0 0 0 0 0 0 0 0 0 0 0 0 0 0 0 0 0 0 0 0 0 0 0 0 0 0 0 0 0 0 0 0 0 0 0 0 0 0 0 0 0
0 0 0 0 0 0 0 0 0 0 0 0 0 0 0 0 0 0 0 0 0 0 0 0 0 0 0 0 0 0 0 0 0 0 0 0 0 0 0 0 0 0 0 0
0 0 0 0 0 0 0 0 0 0 0 0 0 0 0 0 0 0 0 0 0 0 0 0 0 0 0 0 0 0 0 0 0 0 0 0 0 0 0 0 0 0 0 0
0 0 0 0 0 0 0 0 0 0 0 0 0 0 0 0 0 0 0 0 0 0 0 0 0 0 0 0 0 0 0 0 0 0 0 0 0 0 0 0 0 0 0 0
0 0 0 0 0 0 0 0 0 0 0 0 0 0 0 0 0 0 0 0 0 0 0 0 0 0 0 0 0 0 0 0 0 0 0 0 0 0 0 0 0 0 0 0
0 0 0 0 0 0 0 0 0 0 0 0 0 0 0 0 0 0 0 0 0 0 0 0 0 0 0 0 0 0 0 0 0 0 0 0 0 0 0 0 0 0 0 0
0 0 0 0 0 0 0 0 0 0 0 0 0 0 0 0 0 0 0 0 0 0 0 0 0 0 0 0 0 0 0 0 0 0 0 0 0 0 0 0 0 0 0 0
0 0 0 0 0 0 0 0 0 0 0 0 0 0 0 0 0 0 0 0 0 0 0 0 0 0 0 0 0 0 0 0 0 0 0 0 0 0 0 0 0 0 0 0
0 0 0 0 0 0 0 0 0 0 0 0 0 0 0 0 0 0 0 0 0 0 0 0 0 0 0 0 0 0 0 0 0 0 0 0 0 0 0 0 0 0 0 0
0 0 0 0 0 0 0 0 0 0 0 0 0 0 0 0 0 0 0 0 0 0 0 0 0 0 0 0 0 0 0 0 0 0 0 0 0 0 0 0 0 0 0 0
0 0 0 0 0 0 0 0 0 0 0 0 0 0 0 0 0 0 0 0 0 0 0 0 0 0 0 0 0 0 0 0 0 0 0 0 0 0 0 0 0 0 0 0
0 0 0 0 0 0 0 0 0 0 0 0 0 0 0 0 0 0 0 0 0 0 0 0 0 0 0 0 0 0 0 0 0 0 0 0 0 0 0 0 0 0 0 0
0 0 0 0 0 0 0 0 0 0 0 0 0 0 0 0 0 0 0 0 0 0 0 0 0 0 0 0 0 0 0 0 0 0 0 0 0 0 0 0 0 0 0 0
0 0 0 0 0 0 0 0 0 0 0 0 0 0 0 0 0 0 0 0 0 0 0 0 0 0 0 0 0 0 0 0 0 0 0 0 0 0 0 0 0 0 0 0
0 0 0 0 0 0 0 0 0 0 0 0 0 0 0 0 0 0 0 0 0 0 0 0 0 0 0 0 0 0 0 0 0 0 0 0 0 0 0 0 0 0 0 0
0 0 0 0 0 0 0 0 0 0 0 0 0 0 0 0 0 0 0 0 0 0 0 0 0 0 0 0 0 0 0 0 0 0 0 0 0 0 0 0 0 0 0 0
0 0 0 0 0 0 0 0 0 0 0 0 0 0 0 0 0 0 0 0 0 0 0 0 0 0 0 0 0 0 0 0 0 0 0 0 0 0 0 0 0 0 0 0
Wind_Speed
4 5 1 3 3 2 3 3 3 3 1 0 4 6 4 2 2 2 1 1 1 1 1 2 3 3 4 4 5 5 5 5 4 3 2 2 2 2 2 2 3 3 3 3
5 1 2 1 1 2 2 1 2 2 2 1 3 6 4 2 3 3 3 3 3 1 1 2 3 3 3 4 4 4 4 4 4 3 2 1 1 1 2 2 3 3 3 3
4 1 0 3 2 1 1 3 3 2 3 1 3 6 2 1 1 1 1 2 2 2 1 1 2 2 3 4 4 3 4 4 4 4 3 3 2 2 2 3 3 4 4 3
1 2 1 3 1 2 3 2 2 1 1 3 1 5 5 2 2 2 2 2 2 1 0 0 1 2 2 2 3 3 4 4 4 3 3 3 2 2 3 3 3 4 4 4
0 1 2 1 1 2 2 1 1 1 2 2 1 3 8 1 3 5 4 3 2 1 1 1 0 1 1 2 3 3 4 4 5 4 3 2 2 2 3 3 4 4 4 4
1 1 1 1 1 2 2 3 3 3 3 3 4 4 9 4 5 4 3 2 2 2 1 0 1 1 2 2 3 3 4 4 4 4 4 3 3 3 4 4 4 4 3 3
2 2 1 1 2 2 3 4 3 4 2 6 2 4 10 4 2 3 3 3 2 2 1 1 0 1 2 2 3 3 3 4 4 4 3 3 3 2 3 4 4 4 3 3
1 3 1 1 1 2 2 4 5 4 5 5 2 7 7 2 1 2 1 1 1 1 1 1 1 1 1 2 2 3 3 3 4 4 4 3 3 2 2 3 3 4 3 4
3 3 1 2 2 3 3 2 2 4 1 3 6 7 7 1 1 1 0 0 1 1 1 1 1 1 1 2 2 2 3 3 3 3 4 4 3 3 3 4 3 3 4 4
4 2 1 2 1 3 2 5 4 4 2 5 7 5 5 4 3 2 1 1 1 1 1 1 2 2 2 1 2 2 3 3 3 3 3 3 4 3 4 3 4 4 5 5
2 3 2 1 2 3 2 2 3 3 3 4 5 8 4 4 3 3 3 2 2 2 2 2 2 2 2 2 2 2 3 3 3 4 3 3 4 4 3 3 4 4 4 5
2 3 2 3 1 0 2 4 5 4 5 4 3 9 2 2 2 2 2 1 1 1 1 2 2 2 2 2 3 3 3 3 3 3 3 3 4 4 4 4 4 4 4 5
4 4 1 3 2 1 1 2 2 3 3 5 5 9 1 1 1 1 1 2 2 2 2 2 2 2 2 3 3 3 3 3 4 4 3 3 3 3 4 4 4 4 4 5
4 3 5 7 5 4 4 3 4 4 5 6 10 10 6 3 3 3 2 2 2 2 2 2 2 2 3 3 3 3 3 3 4 4 3 3 3 3 4 4 4 4 4 5
4 3 3 4 2 2 5 6 7 9 9 9 9 8 10 6 5 4 3 2 2 3 3 3 3 3 3 3 3 3 3 3 3 3 3 3 3 3 3 4 4 4 5 5
2 2 1 3 2 3 6 8 8 9 7 9 8 11 7 4 1 2 3 3 4 4 4 4 3 3 3 4 4 4 4 3 3 3 3 4 4 4 4 4 4 4 5 5
3 4 2 4 2 3 9 8 9 7 7 8 11 10 2 2 3 4 4 4 5 5 4 4 4 4 4 4 4 4 4 3 2 3 3 3 4 4 4 4 4 4 5 5
6 4 2 1 2 7 7 1 5 6 7 8 6 5 4 4 4 4 4 5 5 5 4 4 4 4 3 3 3 3 3 2 2 3 3 3 3 4 4 4 4 5 4 4
3 5 3 2 3 9 6 2 4 4 7 6 8 7 4 1 3 3 3 4 4 4 4 4 3 3 3 3 3 2 2 2 2 3 4 4 3 4 4 4 5 4 4 4
3 3 3 3 3 8 6 1 2 3 6 3 5 6 3 1 1 4 1 1 2 3 3 3 2 2 3 3 2 1 2 2 4 4 4 4 3 4 4 5 4 4 4 5
2 1 3 5 6 10 4 1 3 3 6 2 4 5 4 5 5 3 1 1 2 2 3 2 2 2 3 2 1 2 3 4 5 4 4 4 4 4 4 4 4 4 4 5
7 6 6 5 6 10 2 5 7 6 1 1 2 3 4 4 3 2 2 2 2 2 2 2 2 3 3 2 1 3 4 5 3 3 4 4 4 4 4 3 4 4 4 4
7 8 6 9 9 3 5 6 4 1 2 2 2 2 3 3 3 3 2 3 3 3 3 2 2 3 3 2 2 3 5 3 3 3 4 4 4 4 4 3 3 3 3 3
4 2 3 5 7 5 5 4 3 3 3 3 2 2 2 3 4 3 3 3 3 3 2 2 2 3 4 3 3 4 4 3 2 3 4 4 3 4 3 3 3 3 3 3
5 4 4 6 6 4 4 6 5 3 2 2 2 2 3 3 3 3 3 3 3 3 2 2 2 4 5 4 4 4 3 2 3 3 4 4 3 3 3 3 3 4 4 4
5 7 7 7 5 5 5 3 3 4 4 3 2 2 2 3 4 3 4 3 3 3 2 3 3 4 4 4 4 4 3 2 3 3 4 3 3 3 3 3 4 7 7 10
Wind_Direction
34 70 136 211 203 184 153 167 233 252 359 278 241 255 265 232 175 195 211 201 197 223 351 32 40 42 43 36 32 27 26 21 23 12 8 4 355 350 354 4 4 357 353 350
54 20 252 134 103 107 133 187 254 302 16 293 283 273 256 207 198 199 202 211 204 220 23 27 38 42 38 30 24 22 18 17 18 10 353 335 326 332 335 346 357 353 350 346
142 244 358 115 102 130 210 202 221 251 336 7 327 296 254 246 196 188 188 181 183 194 218 355 27 28 26 20 10 8 5 13 12 13 16 5 10 4 355 349 347 343 341 342
88 336 91 112 131 161 244 207 191 214 336 296 24 287 272 255 270 242 236 214 211 219 200 104 38 21 13 0 5 9 10 17 16 22 28 21 10 346 325 324 324 334 341 336
187 22 69 138 197 155 198 104 137 156 160 305 332 246 280 296 254 246 233 222 213 203 190 191 53 6 1 7 14 12 17 20 18 21 23 22 5 337 329 333 333 335 333 335
92 32 58 159 80 116 127 71 69 67 82 273 227 200 274 231 231 249 231 216 210 201 191 175 30 44 23 15 17 16 19 15 13 15 15 12 357 344 341 340 333 328 327 329
357 0 9 43 82 43 69 83 23 352 341 255 187 215 253 250 249 246 231 224 221 194 173 167 38 10 7 9 9 12 14 4 3 6 5 358 347 336 326 323 322 324 325 324
151 290 313 20 144 161 170 142 161 213 242 280 269 239 255 251 278 293 264 218 208 196 186 211 251 287 326 345 357 2 358 351 352 353 348 350 349 340 324 321 319 314 309 306
173 244 6 25 7 131 138 168 154 131 114 281 267 281 296 211 301 315 308 161 228 229 230 257 291 292 305 329 338 339 338 341 344 343 342 345 345 343 330 325 323 315 313 315
155 216 297 320 48 25 106 143 115 138 196 266 283 269 258 257 252 261 260 256 269 293 308 305 305 303 305 316 330 345 340 334 334 340 335 337 336 334 328 329 328 323 318 324
127 156 310 8 187 197 127 131 137 143 174 190 267 269 231 228 224 222 235 234 231 252 275 291 308 318 325 337 338 336 334 337 337 334 329 328 326 329 331 327 323 320 321 328
134 126 241 248 248 337 186 187 163 178 221 197 224 268 290 218 247 213 226 251 262 265 284 294 303 327 334 329 328 325 325 326 324 322 320 317 320 327 327 323 320 321 326 325
140 126 24 334 333 353 276 225 191 152 145 178 202 261 346 44 346 286 234 269 288 302 302 313 323 317 311 314 316 314 315 315 320 323 323 323 322 322 319 319 322 329 331 330
119 146 186 215 230 188 218 220 187 164 190 217 226 251 277 277 284 292 280 271 278 286 295 310 313 307 308 310 314 313 313 316 321 326 327 323 320 320 321 324 328 331 332 329
120 192 221 248 250 200 222 221 198 205 210 217 238 238 259 255 248 252 255 275 297 300 302 295 294 296 304 312 316 315 314 318 322 324 322 315 320 325 327 327 328 329 330 326
123 178 197 273 246 246 264 248 218 223 230 239 261 269 263 265 236 250 255 258 267 273 279 290 293 295 297 301 307 312 308 309 316 313 310 319 327 327 328 325 327 329 327 324
154 149 163 268 312 326 269 236 204 211 215 203 229 247 257 275 254 242 245 248 250 261 272 280 283 280 286 290 296 295 295 303 309 308 312 320 323 322 322 322 327 324 321 322
152 151 170 262 23 246 244 158 182 209 239 222 240 264 254 252 276 267 241 231 246 256 267 278 284 290 292 292 297 296 299 303 304 307 308 314 317 315 318 320 318 316 314 313
153 154 157 173 250 275 285 215 167 192 269 222 224 250 263 304 333 294 237 213 232 247 258 265 267 272 283 288 291 295 300 305 307 301 300 303 306 306 310 310 309 307 307 306
61 107 146 165 217 248 256 218 180 126 282 241 200 226 234 119 283 270 262 236 261 271 269 273 282 281 279 283 288 284 292 300 291 290 292 295 295 292 292 294 297 297 296 299
143 153 189 203 234 261 255 185 134 179 255 255 195 207 188 196 223 256 304 294 272 275 279 280 279 276 272 275 255 271 284 278 281 291 293 293 291 285 282 288 291 295 298 305
180 180 196 181 217 253 177 146 191 223 269 202 207 206 199 219 251 274 284 286 293 297 295 285 279 284 283 260 229 265 272 277 287 288 289 289 289 287 292 288 292 295 297 302
200 195 191 198 218 247 179 204 228 205 225 234 218 231 202 222 248 260 267 271 279 279 281 278 263 285 290 262 228 254 274 284 287 289 287 288 290 286 287 282 286 293 294 295
239 204 202 249 260 248 231 245 257 231 227 240 229 225 203 219 239 255 264 274 281 286 285 282 278 285 289 282 265 256 274 276 273 281 288 288 287 289 288 284 280 279 279 282
220 178 211 251 270 299 261 233 239 246 251 264 265 228 213 214 242 244 259 269 272 288 291 277 266 270 276 280 275 278 279 269 274 279 283 286 284 284 288 287 275 275 263 266
195 186 197 233 223 214 249 235 215 217 237 240 246 265 251 217 236 250 259 262 266 277 281 283 276 275 280 282 282 282 275 261 265 283 288 284 283 283 286 292 297 293 289 293